Theta_e
316 317 317 318 318 319 318 318 317 317 318 316 317 316 317 317 316 316 316 316 315 315 315 309 307 305 302 299 298 297 296 295 294 293 293 292 292 292 291 290 289 289 288 288
316 315 316 316 316 316 317 317 317 318 319 314 316 316 316 316 316 316 315 315 314 315 314 309 307 304 301 298 297 296 295 295 294 293 293 293 292 292 291 290 289 288 288 288
316 316 314 315 317 316 316 317 318 318 319 315 315 316 316 316 314 314 313 313 313 313 313 309 306 303 300 298 297 296 295 294 293 293 292 290 289 289 289 289 289 288 287 286
315 315 315 315 315 315 317 317 318 318 318 319 314 318 317 316 315 314 312 314 315 312 310 308 305 302 300 298 296 296 295 294 293 291 290 289 290 291 291 291 289 288 286 286
314 315 313 315 315 316 317 312 315 316 317 319 317 317 316 312 313 313 313 315 316 313 310 307 305 301 299 297 296 295 294 293 292 291 290 289 290 290 290 288 287 287 286 285
312 309 312 315 309 312 310 312 312 312 314 319 316 318 317 316 314 314 314 314 315 312 309 307 304 301 299 297 295 295 294 293 291 290 289 289 290 289 288 287 287 287 286 285
315 313 311 309 312 309 311 315 318 323 323 321 317 316 317 316 314 314 314 314 315 311 309 308 305 302 299 297 295 294 294 292 291 289 289 289 289 289 288 287 287 286 285 284
315 316 312 309 313 316 312 316 320 327 320 320 314 317 316 316 315 313 313 313 312 310 309 308 306 302 299 297 295 294 293 293 291 289 289 288 288 287 287 286 285 284 283 283
314 314 308 310 309 314 313 314 315 321 321 321 317 317 318 318 314 313 312 311 311 309 309 307 305 302 299 297 295 294 293 293 290 289 288 288 287 286 285 284 283 282 281 281
313 315 313 304 305 307 310 311 316 316 324 321 316 317 317 317 315 314 313 312 313 310 309 307 305 302 299 297 294 294 293 292 290 289 288 286 285 284 283 282 281 280 280 279
312 315 312 306 308 311 308 310 310 310 317 319 319 317 313 315 314 313 314 313 314 312 310 308 304 302 299 297 295 294 293 292 290 288 287 285 283 282 281 280 280 279 279 278
312 314 315 314 312 309 311 311 312 314 315 314 315 316 313 314 314 312 312 313 313 313 312 310 307 302 299 297 295 294 293 292 290 287 285 283 282 280 279 279 279 279 278 277
311 314 317 314 310 304 308 310 311 313 313 315 317 316 313 313 313 313 311 312 311 310 310 310 308 303 301 298 296 294 293 291 289 286 283 281 280 279 278 278 278 278 276 275
312 313 313 314 314 312 312 310 310 310 313 313 314 313 313 313 313 313 313 312 312 311 310 310 308 305 302 298 296 294 292 291 287 284 282 280 279 278 278 277 277 276 275 274
310 313 313 314 314 313 312 312 311 310 310 312 312 312 312 312 312 312 312 311 310 310 309 309 307 307 302 298 295 293 291 289 285 282 281 279 278 278 277 277 275 274 274 273
310 313 313 314 313 312 312 311 312 312 312 312 312 310 310 310 311 311 311 310 310 309 308 307 306 304 300 296 294 291 290 287 283 281 280 278 277 276 276 275 274 274 273 272
311 313 314 315 314 314 315 314 313 312 313 313 314 313 313 313 312 312 312 311 310 310 308 305 305 302 299 296 292 290 288 284 281 279 278 276 275 275 274 274 273 272 272 272
314 312 314 317 316 317 315 313 313 313 313 314 313 312 312 313 313 311 311 311 310 309 307 305 303 303 298 295 291 288 285 281 279 278 276 275 274 274 273 272 272 272 271 271
313 314 316 317 317 315 314 313 313 314 314 313 312 312 312 311 310 309 310 309 308 308 307 307 306 304 297 292 289 285 282 278 278 277 275 273 273 272 272 271 271 270 270 270
312 312 315 316 318 319 314 312 311 311 313 311 310 310 310 310 310 310 309 307 305 305 304 303 298 295 292 289 285 281 279 278 278 276 274 273 273 272 271 271 270 270 269 269
313 312 314 315 317 316 313 311 309 315 315 311 309 309 309 309 309 309 305 305 304 301 295 292 291 290 289 285 281 280 278 278 277 275 273 272 272 272 271 270 269 269 268 268
315 316 315 314 315 317 312 312 313 312 312 312 311 310 310 309 309 307 307 306 300 296 290 289 287 286 284 281 280 280 278 277 274 273 271 270 270 270 269 269 268 267 267 267
316 314 313 314 315 312 311 312 312 312 312 311 310 310 310 310 308 306 306 304 297 296 289 286 286 283 280 280 280 280 278 273 272 271 269 268 268 268 268 267 267 267 267 269
301 304 310 308 310 309 310 309 309 311 309 308 309 309 310 310 308 305 302 301 295 291 288 285 283 281 280 279 280 279 273 272 270 269 267 266 266 265 266 266 267 268 269 269
297 297 300 300 298 303 304 306 304 305 303 303 304 305 307 307 307 306 305 303 298 292 288 284 282 281 280 279 279 274 271 271 270 268 267 266 266 266 266 267 267 268 268 269
294 295 296 297 298 299 300 297 296 297 297 297 299 300 303 305 305 305 304 303 302 298 288 284 282 281 279 278 275 272 270 270 270 269 268 267 266 267 266 266 265 266 267 267
Wind_Speed
6 8 16 18 18 22 22 20 22 23 10 9 19 23 23 22 22 24 23 23 21 19 14 21 27 28 28 29 29 29 27 24 22 19 15 12 12 11 10 9 9 6 4 7
6 16 22 16 9 15 18 20 25 22 10 5 16 23 22 22 26 24 23 22 18 13 11 15 23 27 29 30 30 30 28 25 24 19 17 10 14 12 11 10 9 6 7 10
22 22 4 4 13 14 18 21 22 21 15 13 16 21 18 13 16 17 20 18 15 13 13 15 19 28 29 32 33 32 30 27 25 20 17 13 13 10 10 10 8 9 9 9
18 19 17 15 19 16 19 9 17 18 11 15 2 17 15 16 19 12 18 17 14 11 10 13 17 24 31 32 31 31 31 29 27 24 22 22 18 14 13 11 10 9 8 9
12 6 9 14 13 10 6 2 4 8 13 17 17 14 15 6 10 13 17 18 11 9 12 16 18 25 29 31 33 33 32 30 28 28 26 25 19 15 11 8 8 9 9 11
18 2 4 5 2 3 7 2 3 4 5 12 21 18 10 8 7 9 13 14 8 9 12 13 18 22 25 28 31 33 34 32 30 29 29 25 21 17 14 13 10 9 9 8
12 22 4 4 5 4 8 6 6 8 6 14 13 12 19 12 14 16 21 18 7 10 13 14 16 16 23 30 33 33 35 34 33 32 29 27 23 20 17 14 12 10 8 9
9 12 16 15 15 9 13 10 6 10 14 21 6 14 12 11 13 11 12 6 5 11 12 14 15 16 23 28 32 33 35 34 34 31 28 26 24 21 19 16 12 11 11 12
10 15 4 11 4 9 9 8 6 9 5 8 17 29 26 11 11 11 7 5 11 11 11 14 14 19 23 27 34 37 34 34 35 33 30 28 26 23 20 17 16 15 14 13
11 16 6 6 3 6 6 2 5 5 6 15 26 25 19 13 14 8 7 10 12 10 13 12 13 16 23 27 31 33 34 36 34 33 33 31 29 26 21 19 18 16 12 12
8 7 7 5 11 15 7 7 7 4 10 13 16 16 5 2 7 3 7 9 8 8 10 12 11 16 22 25 29 33 35 35 35 35 33 30 28 26 23 22 18 16 14 13
10 3 9 22 12 9 13 18 19 11 17 9 15 25 8 8 7 5 6 6 8 6 10 11 12 16 21 27 28 31 32 34 36 34 32 30 28 27 23 19 17 16 15 14
8 5 7 13 8 6 8 15 17 19 14 24 18 24 18 27 18 18 9 10 9 10 11 10 11 14 16 23 27 30 32 35 33 33 31 29 28 27 24 20 19 17 15 12
4 6 12 19 25 8 13 20 19 21 18 24 25 28 30 32 22 28 24 17 14 14 16 15 12 13 13 20 24 27 30 33 33 33 31 30 29 28 24 20 17 15 12 10
5 16 20 23 28 31 26 22 15 25 26 22 27 24 23 28 33 28 24 18 18 21 16 12 14 13 13 17 24 26 29 33 34 32 31 30 28 26 24 22 17 13 12 12
11 14 18 24 27 30 34 30 28 32 27 29 27 28 31 35 36 34 34 32 24 27 19 18 16 13 11 15 25 28 31 33 34 32 30 28 29 29 25 19 16 14 12 11
8 6 9 19 25 28 23 35 37 34 38 35 30 38 35 36 35 34 26 27 23 24 17 12 13 11 14 21 28 29 31 32 32 30 28 29 30 28 22 18 15 13 12 10
15 17 13 14 14 20 25 26 31 38 37 35 28 30 35 36 33 21 22 26 24 22 19 12 7 8 15 19 23 26 31 33 32 30 29 31 29 26 20 17 15 13 12 11
26 22 14 11 16 23 8 20 23 26 35 30 30 36 37 32 21 25 32 27 21 23 19 14 8 8 15 21 26 26 26 27 28 28 28 25 26 25 22 19 15 12 10 9
30 26 18 15 14 22 18 27 23 23 14 20 28 28 30 25 11 20 30 11 12 14 9 6 9 11 17 21 31 32 30 30 29 30 31 31 27 22 19 17 14 10 9 9
8 16 23 23 21 15 13 13 7 22 23 30 27 25 27 20 16 22 5 6 6 3 6 9 11 11 20 29 31 27 29 30 33 32 34 33 29 26 20 17 12 11 9 8
28 12 12 13 18 26 18 23 29 30 28 23 21 21 19 18 20 18 20 17 9 9 6 11 8 9 19 26 28 25 26 31 32 38 35 29 28 24 21 18 14 11 8 6
20 17 11 17 14 13 15 27 23 23 30 27 25 24 21 17 13 12 12 11 10 11 7 11 9 12 20 26 28 23 27 34 34 33 32 31 26 21 19 16 12 9 8 6
12 11 5 14 10 15 20 24 16 18 14 17 19 18 16 16 16 15 8 7 5 7 9 10 10 11 13 25 26 26 32 35 35 29 28 27 26 20 18 13 12 10 9 6
13 16 18 26 29 22 18 19 21 17 13 15 15 16 20 21 22 16 14 15 9 8 9 14 12 12 15 26 27 31 35 39 34 32 28 26 23 23 19 13 12 9 6 5
15 19 16 19 24 19 17 22 27 24 22 19 17 19 17 15 15 14 13 14 14 10 9 12 13 15 22 28 27 32 36 38 35 28 25 23 23 22 20 19 13 9 7 5
Wind_Direction
190 229 241 255 244 250 275 283 276 273 273 224 247 262 270 275 278 274 276 273 265 254 243 214 217 210 200 198 198 198 194 191 185 187 186 191 194 193 201 206 214 233 260 296
218 240 255 279 288 268 259 265 267 274 294 210 272 270 271 267 267 273 273 271 274 267 208 210 206 199 198 196 198 198 198 193 192 192 191 192 191 202 200 196 211 223 252 273
240 256 84 259 255 249 244 250 260 273 304 241 267 277 261 247 255 260 268 263 266 253 224 204 197 197 198 201 199 198 197 195 194 192 186 186 185 194 201 209 212 225 245 266
251 260 257 247 253 246 259 264 254 269 282 276 77 287 283 285 265 240 267 271 261 216 206 201 193 194 200 202 200 199 198 197 196 193 191 194 199 200 203 190 198 225 255 263
235 223 221 232 245 226 238 3 249 258 259 281 264 270 279 196 264 231 248 262 271 190 201 195 190 195 200 199 198 197 198 197 195 195 198 198 201 202 193 201 222 245 255 261
259 73 243 235 106 241 122 229 227 231 268 259 262 245 277 232 226 232 250 244 251 189 189 197 192 193 197 196 197 197 195 196 195 197 201 200 199 194 196 206 217 229 239 256
223 226 180 198 209 164 204 214 273 255 222 264 281 263 257 277 251 257 263 267 199 175 184 185 188 189 192 194 195 198 196 196 197 197 197 198 199 199 204 207 217 227 247 261
252 243 192 196 221 261 198 216 219 264 264 283 101 265 266 238 233 235 249 246 188 187 189 189 191 191 194 194 195 199 201 198 194 194 197 197 197 199 203 206 211 221 233 248
225 250 123 181 184 185 167 204 252 272 266 281 270 271 270 234 198 223 217 214 225 209 199 199 198 196 197 195 198 200 202 201 194 191 192 194 195 195 196 200 207 218 229 239
257 262 172 125 199 227 237 43 190 205 260 256 278 279 279 274 229 215 232 237 249 212 214 218 206 198 197 198 201 201 202 201 196 192 191 191 190 194 194 195 206 213 224 239
236 227 238 142 201 217 190 224 220 295 239 252 268 271 48 31 136 297 224 246 240 212 210 215 207 203 202 200 201 202 200 197 195 192 189 187 185 188 192 196 202 211 222 234
214 236 232 237 246 246 247 229 220 222 233 233 250 268 130 111 107 141 218 205 249 225 218 222 204 202 201 201 199 202 200 198 196 191 186 183 181 184 189 194 199 211 223 236
176 210 237 259 230 168 211 224 240 240 251 247 247 249 267 272 278 278 242 228 211 219 236 224 207 201 207 203 199 199 197 199 193 186 184 178 180 182 186 191 201 211 223 230
15 238 229 241 251 261 219 230 225 228 233 248 246 262 273 282 282 275 274 265 253 237 240 251 219 217 209 204 198 199 197 194 187 184 182 180 182 181 184 189 199 210 222 230
297 272 268 256 264 275 273 262 229 225 235 243 260 261 266 277 274 276 277 280 283 274 270 244 230 229 209 198 197 197 195 191 185 182 181 182 178 177 182 189 196 204 219 234
238 249 255 261 265 268 273 271 268 264 264 260 255 258 259 261 269 274 271 276 276 276 274 266 258 227 204 199 195 191 191 186 180 181 180 176 173 179 184 184 189 200 218 232
195 210 223 244 244 247 252 244 247 251 254 252 253 251 259 264 262 261 276 275 274 276 271 256 247 219 210 203 193 189 184 177 177 177 175 172 176 179 179 180 187 199 215 226
225 217 226 257 258 234 240 246 235 246 253 260 255 257 255 257 271 289 273 266 273 270 269 263 237 231 204 199 186 175 172 172 173 173 169 175 173 175 175 181 188 199 214 227
222 230 239 237 233 249 307 233 224 227 240 245 256 254 256 267 274 272 263 260 254 261 266 265 255 213 176 171 166 163 165 167 171 171 167 172 176 172 174 182 190 197 211 233
227 226 229 232 241 242 230 226 243 243 243 231 241 252 261 263 236 253 262 258 238 249 246 219 151 150 153 164 161 159 165 172 180 174 167 174 176 176 179 181 185 195 214 238
209 225 230 233 244 246 238 237 228 241 252 234 242 250 260 258 240 258 289 232 228 215 161 150 164 165 168 164 163 165 168 179 177 166 168 170 174 173 177 180 181 196 210 226
236 222 219 234 244 249 219 232 233 244 251 252 255 252 252 256 258 244 251 249 211 206 176 172 164 161 160 165 168 176 178 172 166 160 161 168 168 169 174 175 182 190 198 218
249 265 292 266 254 250 229 228 251 259 254 259 263 265 283 298 278 265 252 257 212 204 176 171 168 162 169 177 181 178 175 160 159 155 153 163 165 165 170 171 171 178 193 198
291 295 276 331 345 321 310 311 349 359 357 339 332 334 334 323 313 304 303 271 211 188 185 178 168 177 181 181 184 178 161 159 155 150 151 159 157 159 166 164 173 184 190 185
284 307 293 292 290 291 305 311 309 308 310 308 305 307 312 313 304 292 290 285 254 207 184 183 189 194 187 180 180 169 164 161 156 152 155 155 156 158 158 165 176 177 184 196
273 277 274 277 298 308 314 317 310 309 305 300 297 297 285 271 266 273 278 276 273 246 196 194 196 190 183 176 167 166 167 165 154 148 153 156 155 156 158 160 157 167 173 191